Regional Weather Roundup
Issued by NWS

Home | Current Version | Previous Version | Text Only | Print | Product List | Glossary On
Versions: 1 2 3 4 5 6 7 8 9 10 11 12 13 14 15 16 17 18 19 20 21 22 23 24 25 26 27 28 29 30 31 32 33 34 35 36 37 38 39 40 41 42 43 44 45 46 47 48 49 50
000
ASMX46 KSGX 261411
RWRMX

MEXICAN WEATHER ROUNDUP
NATIONAL WEATHER SERVICE SAN DIEGO CA
700 AM PDT SUN MAR 26 2017

BAJA CALIFORNIA

CITY           SKY/WX    TMP DP  RH WIND       PRES   REMARKS
ENSENADA NW      N/A     54  32  42 CALM      30.02R
LA PAZ         CLEAR     50  30  46 S8        29.97R
LORETO         CLEAR     68  63  83 CALM      29.92
MEXICALI       PTCLDY    55  43  62 NW7       29.93R
S.J. DEL CABO  CLEAR     55  30  38 N2        29.95R
TIJUANA        CLOUDY    55  52  88 CALM      30.04S

NORTHWESTERN MEXICO

CITY           SKY/WX    TMP DP  RH WIND       PRES   REMARKS
CHIHUAHUA      MOSUNNY   50  18  27 S7        30.02
CULIACAN       SUNNY     63  54  72 CALM      29.93R
GUAYMAS        CLEAR     59  48  67 CALM      29.88
HERMOSILLO     CLEAR     59  45  58 CALM      29.93R
JUAREZ         MOSUNNY   57  37  47 N5        29.89
LOS MOCHIS     CLEAR     55  52  88 E8        29.95
OBREGON        CLEAR     55  46  71 SE6       29.90R

NORTHEASTERN MEXICO

CITY           SKY/WX    TMP DP  RH WIND       PRES   REMARKS
MATAMOROS      SUNNY     70  68  94 SE8       29.87
MONCLOVA       SUNNY     68  50  52 N7        29.84
MONTERREY      SUNNY     68  66  94 CALM      29.82R
NUEVO LAREDO   SUNNY     70  63  78 SE12      29.81S
PIEDRAS NEGRAS SUNNY     66  61  82 SE7       29.81
REYNOSA        MOSUNNY   68  64  88 SE12      29.84R
SALTILLO       SUNNY     70  50  49 S12       30.08R
TORREON        MOSUNNY   63  23  22 CALM      29.99R
VICTORIA       SUNNY     70  64  83 S23       29.83F

WESTERN MEXICO

CITY           SKY/WX    TMP DP  RH WIND       PRES   REMARKS
AGUASCALIENTES SUNNY     57  41  54 S5        30.24R
COLIMA         MOSUNNY   70  63  78 CALM      30.04R
DURANGO        SUNNY     54  41  62 SW14      30.20R
GUADALAJARA    MOSUNNY   59  50  72 CALM      30.18R
MANZANILLO     SUNNY     68  61  77 N7        29.92
MAZATLAN       SUNNY     57  54  88 NE7       29.99R
PTO. VALLARTA  CLOUDY    72  70  94 NE5       29.93R
TEPIC          SUNNY     50  46  87 CALM      30.06S
URUAPAN        SUNNY     59  54  82 CALM      30.17R
ZACATECAS      MOSUNNY   55  36  47 S13       30.23R

CENTRAL MEXICO

CITY           SKY/WX    TMP DP  RH WIND       PRES   REMARKS
CUERNAVACA     SUNNY     68  48  49 CALM      30.12R
LEON           SUNNY     59  41  51 CALM      30.26R
MEXICO CITY    SUNNY     57  45  62 NE3       30.32S
MORELIA        SUNNY     52  45  76 CALM      30.23R
POZA RICA      FOG       72  70  94 S5        29.95R VSB 1
PUEBLA         SUNNY     50  43  76 NW7       30.32R
QUERETARO      MOSUNNY   54  39  58 CALM      30.28R
S. LUIS POTOSI SUNNY     52  36  54 CALM      30.20R
TAMPICO        PTSUNNY   75  72  88 SW12      29.90R
TOLUCA         SUNNY     46  45  93 S6        30.40R
VERACRUZ       PTSUNNY   73  72  94 CALM      29.93S

SOUTHERN MEXICO

CITY           SKY/WX    TMP DP  RH WIND       PRES   REMARKS
ACAPULCO       SUNNY     79  75  89 E5        29.90R
B. DE HUATULCO MOSUNNY   73  63  68 CALM      29.97
MINATITLAN     FOG       72  66  83 CALM      29.93  VSB 1/4
OAXACA         SUNNY     63  48  59 N6        30.22R
PTO. ESCONDIDO SUNNY     75  70  83 E5        30.00R
TAPACHULA      SUNNY     79  72  78 E3        29.91R
TUX. GUTIERREZ MOSUNNY   72  59  64 E3        29.99R
VILLAHERMOSA   FOG       68  68 100 CALM      29.95R VSB 1/2
ZIHUATANEJO    SUNNY     73  66  78 CALM      29.92R

YUCATAN PENINSULA

CITY           SKY/WX    TMP DP  RH WIND       PRES   REMARKS
CAMPECHE       MOSUNNY   73  66  78 SE17      29.94R
CANCUN         MOSUNNY   79  68  69 E9        30.03R
CHETUMAL       SUNNY     79  68  69 E8        29.99R
C. DEL CARMEN  SUNNY     77  66  69 SE16      29.94R
COZUMEL        MOSUNNY   79  68  69 E6        30.01R
MERIDA         MOSUNNY   75  66  73 E17       30.00R

$$





USA.gov is the U.S. government's official web portal to all federal, state and local government web resources and services.